Location: Sternwarte_Laufen
(47.9344°N, 12.9346°E)
Time: 01:05:37
(UTC+02:00)

ISS - Visible Passes

Search period start: 24 August 2019 00:00
Search period end: 03 September 2019 00:00
Orbit: 410 x 421 km, 51.6° (Epoch: 24 August)

Date Brightness Start Highest point End Pass type
(mag) Time Alt. Az. Time Alt. Az. Time Alt. Az.
26 Aug -0.8 05:40:15 10° SE 05:40:55 10° SE 05:41:35 10° ESE visible
28 Aug -1.8 05:36:52 10° SSW 05:39:36 24° SE 05:42:21 10° E visible
29 Aug -1.3 04:49:03 10° S 04:50:58 15° SE 04:53:01 10° E visible
30 Aug -3.2 05:35:12 10° SW 05:38:25 51° SSE 05:41:42 10° ENE visible
31 Aug -2.6 04:48:24 24° S 04:49:40 33° SE 04:52:43 10° ENE visible
01 Sep -1.7 04:01:33 21° ESE 04:01:33 21° ESE 04:03:34 10° E visible
01 Sep -3.8 05:34:25 13° WSW 05:37:21 81° NNW 05:40:43 10° ENE visible
02 Sep -3.8 04:47:30 42° SW 04:48:28 71° SSE 04:51:49 10° ENE visible
